Location: Melara
(45.0500°N, 11.1833°E)
Time: 12:25:25
(UTC+00:00)

Meteor 1-29 - Visible Passes

Search period start: 26 September 2022 00:00
Search period end: 06 October 2022 00:00
Orbit: 418 x 437 km, 97.7° (Epoch: 25 September)

Date Brightness Start Highest point End Pass type
(mag) Time Alt. Az. Time Alt. Az. Time Alt. Az.
26 Sep 5.9 02:49:22 10° ENE 02:51:14 14° E 02:53:06 10° SE visible
26 Sep 3.6 04:20:40 10° N 04:23:38 32° WNW 04:26:35 10° SW visible
27 Sep 3.2 03:38:49 10° NNE 03:42:05 65° ESE 03:45:21 10° S visible
28 Sep 5.7 02:57:57 10° NE 03:00:17 18° E 03:02:37 10° SE visible
28 Sep 3.9 04:29:47 10° NNW 04:32:34 25° WNW 04:35:20 10° SW visible
29 Sep 2.8 03:47:44 10° NNE 03:51:02 85° ESE 03:54:19 10° SSW visible
30 Sep 5.3 03:06:34 10° NE 03:09:14 22° E 03:11:54 10° SSE visible
30 Sep 4.2 04:38:53 10° NNW 04:41:25 21° WNW 04:43:56 10° WSW visible
01 Oct 2.7 03:56:35 10° N 03:59:53 73° WNW 04:03:10 10° SSW visible
02 Oct 4.9 03:15:10 10° NE 03:18:05 28° E 03:21:00 10° SSE visible
03 Oct 2.9 04:05:23 10° N 04:08:37 55° WNW 04:11:52 10° SSW visible
04 Oct 4.4 03:23:45 10° NNE 03:26:51 36° E 03:29:55 10° SSE visible
05 Oct 6.2 02:43:47 10° ENE 02:44:47 11° E 02:45:48 10° ESE visible
05 Oct 3.2 04:14:08 10° N 04:17:17 43° WNW 04:20:26 10° SW visible
